Date,TemperatureHighF,TemperatureAvgF,TemperatureLowF,DewpointHighF,DewpointAvgF,DewpointLowF,HumidityHigh,HumidityAvg,HumidityLow,PressureMaxIn,PressureMinIn,WindSpeedMaxMPH,WindSpeedAvgMPH,GustSpeedMaxMPH,PrecipitationSumIn
2013-3-1,48.8,38.9,26.3,31.0,27.2,24.0,94,65,44,29.96,29.88,8,1,11,0.00
2013-3-2,44.9,37.3,26.8,37.0,31.7,24.0,95,80,64,29.96,29.85,6,1,17,0.05
2013-3-3,47.9,33.4,20.5,25.0,19.4,16.0,95,61,30,30.05,29.92,8,2,13,0.00
2013-3-4,57.6,38.8,20.3,24.0,16.9,9.0,85,47,15,30.18,30.04,9,1,16,0.00
2013-3-5,52.1,44.9,36.7,46.0,36.1,24.0,97,73,46,30.09,29.63,5,1,13,0.65
2013-3-6,49.4,40.5,31.6,42.0,27.3,22.0,97,62,38,30.14,29.63,12,3,24,0.00
2013-3-7,56.4,40.2,25.7,29.0,25.7,24.0,93,61,31,30.29,30.14,9,2,17,0.00
2013-3-8,57.8,40.1,23.3,27.0,23.1,19.0,94,57,23,30.36,30.22,10,1,17,0.00
2013-3-9,64.8,44.8,25.5,36.0,28.5,24.0,95,59,24,30.38,30.25,5,1,9,0.00
2013-3-10,68.5,51.2,33.3,39.0,34.7,31.0,95,59,26,30.31,30.17,9,1,12,0.00
2013-3-11,69.4,56.5,40.6,55.0,43.4,30.0,92,63,46,30.20,29.85,20,3,23,0.10
2013-3-12,70.1,60.3,46.7,59.0,48.5,30.0,96,70,26,29.98,29.74,15,3,19,0.53
2013-3-13,57.9,44.8,32.5,34.0,25.4,16.0,88,51,24,30.17,29.98,14,2,22,0.00
2013-3-14,54.2,40.0,27.5,23.0,16.4,10.0,67,41,18,30.31,30.17,8,2,15,0.00
2013-3-15,68.8,47.1,27.1,39.0,28.4,18.0,86,53,27,30.23,29.92,11,2,20,0.00
2013-3-16,78.2,66.6,56.5,46.0,42.3,39.0,59,43,29,29.91,29.71,17,4,21,0.00
2013-3-17,76.1,61.2,46.6,52.0,44.0,40.0,78,55,34,30.09,29.84,10,2,16,0.00
2013-3-18,46.5,42.2,40.2,42.0,40.1,39.0,97,92,78,30.13,29.87,9,2,19,0.81
2013-3-19,67.2,51.8,39.9,45.0,30.0,11.0,98,55,16,30.05,29.86,13,2,16,0.00
2013-3-20,58.1,50.0,43.3,25.0,13.5,8.0,38,24,15,30.12,29.80,15,2,18,0.00
2013-3-21,48.2,38.6,27.8,28.0,11.5,4.0,58,34,20,29.99,29.80,13,2,17,0.00
2013-3-22,54.2,39.7,21.8,23.0,16.7,13.0,83,44,20,30.11,29.99,10,2,16,0.00
2013-3-23,55.5,45.6,39.7,42.0,36.0,23.0,93,70,40,30.07,29.91,6,1,9,0.05
2013-3-24,43.3,40.9,38.7,43.0,39.6,38.0,97,94,89,29.95,29.57,15,2,16,0.95
2013-3-25,50.0,41.9,36.9,39.0,28.4,18.0,98,64,30,29.91,29.57,9,2,22,0.05
2013-3-26,48.9,39.5,26.3,27.0,24.0,22.0,85,56,39,30.21,29.91,9,1,16,0.00
2013-3-27,54.1,39.4,25.5,28.0,22.2,19.0,90,55,26,30.29,30.19,9,2,15,0.00
2013-3-28,58.4,41.5,24.4,26.0,21.6,17.0,91,51,20,30.33,30.20,11,1,15,0.00
2013-3-29,63.5,45.8,25.9,42.0,26.4,20.0,94,54,21,30.37,30.19,9,1,12,0.00
2013-3-30,65.1,53.8,45.3,48.0,43.5,39.0,97,72,39,30.24,30.05,4,1,8,0.34
2013-3-31,71.1,58.5,51.0,58.0,51.8,45.0,97,80,49,30.05,29.80,14,2,22,0.35